Airfield :
LOGIN :

Register | Disclaimer

   EN    FR    IT 

 










Legend :    VFR   Marginal VFR   IFR   Intensive IFR   Very Intensive IFR
Visi :
Ceiling :
>= 8 km
>= 3000ft
5 to 8 km
1000 to 3000 ft
1500m to 5 km
500 to 1000 ft
800 to 1500m
200 to 500 ft
< 800m
< 200 ft
Symbols :   Thunderstorms  Fog  Heavy snow  Heavy precipitations  Wind > 20 kt
SIGMETs :     Misc.  Thunderstorms  Icing  Turbulence  Mountain Waves  Volcanic Ashes






- Airport Elevation : 285 ft
- IATA code : OZP


LEMO - Sevilla Moron

CURRENT METAR :
  • 300400Z 07008KT CAVOK 13/10 Q1016 NOSIG

EXPIRED METARs :
  • 300330Z 07006KT CAVOK 13/11 Q1016 NOSIG
  • 300300Z 06007KT CAVOK 13/11 Q1017 NOSIG
  • 300230Z 05005KT CAVOK 13/12 Q1016 NOSIG
  • 300200Z 07007KT CAVOK 13/12 Q1016 NOSIG
  • 300130Z 08005KT CAVOK 13/11 Q1017 NOSIG

TAF TAF LEMO
Valid from the 30 at 03:00 until the 01 at 03:00 UTC


300200Z 3003/0103 05006KT 9999 FEW040 TX22/3015Z TN11/3007Z
PROB30
TEMPO 3003/3004 RA
TEMPO 3011/3015 11012KT



MET'MAP, your aeronautical weather chart ! - Copyright ORBIFLY December 2007 - Disclaimer

ORBIFLY MET'MAP TEAM :

Programming & Development : Alexandra Zaïnal
Concept & original design : Baudouin d'Aumeries
Assistance for programming : Marc-Olivier Méhu
Technical & hardware support : Manuel Goepfert

Contact : metmap@orbifly.com




SOURCES & CREDITS :

   NOAA